Regional Weather Roundup
Issued by NWS Boston, MA

Current Version | Previous Version | Graphics & Text | Print | Product List | Glossary On
Versions: 1 2 3 4 5 6 7 8 9 10 11 12 13 14 15 16 17 18 19 20 21 22 23 24 25 26 27 28 29 30 31 32 33 34 35 36 37 38 39 40 41 42 43 44 45 46 47 48 49 50
000
ASUS41 KBOX 240910
RWRBOX

REGIONAL WEATHER ROUNDUP
NATIONAL WEATHER SERVICE BOSTON/NORTON MA
500 AM EDT SAT AUG 24 2019

NOTE:  "FAIR" INDICATES FEW OR NO CLOUDS BELOW 12,000 FEET WITH NO
SIGNIFICANT WEATHER AND/OR OBSTRUCTIONS TO VISIBILITY.

MAZALL-241000-
EASTERN MASSACHUSETTS

CITY           SKY/WX    TMP DP  RH WIND       PRES   REMARKS
BOSTON         FAIR      63  48  58 NW13      30.08R
BEVERLY        FAIR      54  49  83 N7        30.07R
LAWRENCE       FAIR      56  49  77 CALM      30.11R
BEDFORD        FAIR      54  48  80 CALM      30.08R
BLUE HILL        N/A     56  49  77 N13       30.08R
NORWOOD        FAIR      52  48  86 CALM      30.09R
MARSHFIELD     FAIR      61  54  77 NW6       30.07R
PLYMOUTH       FAIR      58  51  78 N7        30.07R
TAUNTON        FAIR      52  49  89 CALM      30.07R
NEW BEDFORD    FAIR      56  50  80 NW3       30.06R
$$

MAZALL-241000-
CAPE COD AND THE ISLANDS

CITY           SKY/WX    TMP DP  RH WIND       PRES   REMARKS
FALMOUTH       CLEAR     59  54  82 N6        30.05S
HYANNIS        FAIR      65  58  78 N7        30.04R
CHATHAM        FAIR      64  55  72 VRB3      30.05R
PROVINCETOWN   FAIR      65  59  81 N10       30.06R
NANTUCKET      FAIR      66  58  75 N15       30.03R
MARTHAS VNYRD  FAIR      60  53  77 N8        30.05R
$$

MAZALL-241000-
CENTRAL AND WESTERN MASSACHUSETTS

CITY           SKY/WX    TMP DP  RH WIND       PRES   REMARKS
WORCESTER      FAIR      57  47  69 NW9       30.10S
FITCHBURG      FAIR      54  48  80 N6        30.11R
ORANGE         FAIR      50  47  89 CALM      30.14R
SPRINGFIELD    FAIR      52  51  97 N3        30.11R
WESTFIELD      FAIR      53  49  86 N5        30.12R
NORTH ADAMS    CLOUDY    51  51 100 CALM      30.16R FOG
PITTSFIELD     FOG       49  47  93 CALM      30.14R VSB 3/4
$$

RIZALL-241000-
RHODE ISLAND

CITY           SKY/WX    TMP DP  RH WIND       PRES   REMARKS
PROVIDENCE     FAIR      60  51  72 N8        30.09R
NEWPORT        FAIR      62  52  69 N8        30.08R
BLOCK ISLAND   FAIR     N/A N/A N/A N10G17    30.08R
SMITHFIELD     FAIR      54  50  86 N3        30.10R
WESTERLY       FAIR      60  53  77 N6        30.09R
$$

CTZALL-241000-
CONNECTICUT

CITY           SKY/WX    TMP DP  RH WIND       PRES   REMARKS
BRADLEY INTL   FAIR      55  50  83 N6        30.11R
HARTFORD       FAIR      58  53  84 NE3       30.11R
BRIDGEPORT     FAIR      63  50  62 N7        30.10R
DANBURY        FAIR      53  51  93 SW3       30.14R
GROTON         CLOUDY    62  51  67 N8        30.08R
NEW HAVEN      FAIR      61  55  81 N10       30.10R
CHESTER        FAIR      57  54  88 N6        30.11R
MERIDEN        FAIR      55  53  93 CALM      30.11R
WILLIMANTIC    FAIR      54  52  93 CALM      30.12R
OXFORD         FAIR      58  50  75 N10       30.13R
$$

MEZ002-015-021-024-NHZ003-005-008-011-012-014-VTZ005-008-241000-
NORTHERN NEW ENGLAND

CITY           SKY/WX    TMP DP  RH WIND       PRES   REMARKS
PORTLAND ME    FAIR      55  49  80 W6        30.08R
BANGOR ME      FAIR      54  51  90 CALM      30.06R
CONCORD NH     FAIR      46  45  96 NE3       30.10R
MANCHESTER NH  FAIR      57  49  74 NE3       30.08R
NASHUA NH      FAIR      52  51  97 CALM      30.11R
PORTSMOUTH NH  CLEAR     55  50  84 CALM      30.07R
JAFFREY NH     FAIR      48  45  89 CALM      30.13R
KEENE NH       FOG       46  46 100 CALM      30.14R VSB 1/4
BURLINGTON VT  FAIR      52  49  89 CALM      30.16S
MT. WASHINGTON PTCLDY    38  38  98 NE18G25     N/A  WCI  28
$$

NYZ052-076-241000-
EASTERN NEW YORK

CITY           SKY/WX    TMP DP  RH WIND       PRES   REMARKS
ALBANY         FAIR      55  50  83 CALM      30.15R
NEW YORK CITY  FAIR      66  55  67 N9        30.10R
$$

ANZALL-241000-
MARINE OBSERVATIONS

STATION/POSITION TIME  TEMP    WIND        PRES    VSBY  WAVE
                       AIR SEA DIR/SP/G                  HT/PER
                 (UTC) (F)     (DEG/KT/KT) (MB)    (MI)  (FT/S)
BOSTON BUOY      0850   63 67              1017.0R         2/ 3
BUZZARDS BAY     0800   64     360/ 18/ 19 1017.7R
NANTUCKET SOUND  0840      75              1017.1R
MASS BAY-STELLWA 0804   63 64  330/ 10/ 12 1017.4R  1 7/8  2/ 6
ISLE OF SHOALS   0800   61     310/ 12/ 13 1017.4S
S OF BLOCK IS    0900      76                N/A           4/ 5
$$

......................KEY.........................
  SKY/WX - SKY CONDITION/PRESENT WEATHER
  TMP    - TEMPERATURE IN FAHRENHEIT
  DWPT   - DEWPOINT IN FAHRENHEIT
  RH     - RELATIVE HUMIDITY IN PERCENT
  WIND   - DIRECTION AND SPEED IN MPH
  PRES   - MEAN SEA LEVEL PRESSURE IN INCHES OF HG
  WCI    - WIND CHILL INDEX
  VSB    - VISIBILITY IN MILES
  HX     - HEAT INDEX
  TC     - TEMPERATURE IN CELSIUS
  VRB    - VARIABLE WIND DIRECTION
  N/A    - NOT AVAILABLE



USA.gov is the U.S. government's official web portal to all federal, state and local government web resources and services.